Regional Weather Roundup
Issued by NWS Bismarck, ND

Home | Current Version | Previous Version | Text Only | Print | Product List | Glossary On
Versions: 1 2 3 4 5 6 7 8 9 10 11 12 13 14 15 16 17 18 19 20 21 22 23 24 25 26 27 28 29 30 31 32 33 34 35 36 37 38 39 40 41 42 43 44 45 46 47 48 49 50
000
ASUS43 KBIS 280110
RWRBIS

NWR BROADCAST TEXT
NATIONAL WEATHER SERVICE BISMARCK ND
800 PM CDT WED MAY 27 2015

NOTE: "FAIR" INDICATES FEW OR NO CLOUDS BELOW 12,000 FEET WITH NO
SIGNIFICANT WEATHER AND/OR OBSTRUCTIONS TO VISIBILITY.


CITY           SKY/WX    TMP DP  RH WIND       PRES   REMARKS
WILLISTON      CLOUDY    65  53  65 SE8       29.90F
MINOT          LGT RAIN  64  52  64 E12       29.91R
MINOT AFB      CLOUDY    72  51  47 SE15      29.90R
BISMARCK       CLOUDY    75  51  43 SW9       29.90S
DICKINSON      CLOUDY    59  55  87 E13       29.90F
GARRISON         N/A     65  53  65 W20G30    29.93R
HETTINGER ARPT LGT RAIN  57  55  93 E13       29.94F
JAMESTOWN      PTSUNNY   71  52  50 E15       29.94R
BEACH          FAIR      63  59  88 SE10      29.91S
CARRINGTON     FAIR      64  61  88 E9        29.97R
CROSBY         FAIR      61  59  94 E5        29.94R
HARVEY         CLOUDY    66  54  63 E20       29.94S THUNDER
HAZEN          LGT RAIN  63  55  77 W12G20    29.94R
LINTON         FAIR      72  55  56 S13       29.92F
MANDAN         FAIR      70  54  56 S8        29.93R
OAKES            N/A     77  54  44 S7        29.94R
STANLEY        DRIZZLE   59  59 100 SW12      29.95S
WATFORD CITY   FAIR      59  57  94 SE12      29.88
$$

CITY           SKY/WX    TMP DP  RH WIND       PRES   REMARKS
GRAND FORKS    PTSUNNY   69  54  58 N7        29.95S
GRAND FORKS AF PTSUNNY   70  52  53 NE8       29.96F
DEVILS LAKE    CLOUDY    70  52  52 SE12      29.97R
FARGO          MOCLDY    75  56  51 NE6       29.94S
CANDO          FAIR      72  48  43 E13       29.97S
CAVALIER       FAIR      68  41  37 NE5       29.99S
GRAFTON        FAIR      70  46  43 N6        29.99R
LANGDON        FAIR      68  45  42 NE9       30.01R
ROLLA          FAIR      68  45  42 E13       29.99F
WALHALLA         N/A     68  43  40 MISG      30.00R
$$

CITY           SKY/WX    TMP DP  RH WIND       PRES   REMARKS
ABERDEEN       CLOUDY    73  54  51 SE5       29.94R
MOBRIDGE       CLOUDY    71  56  58 SE5       29.91S
BUFFALO          N/A     58  56  93 NE8       29.87S
RAPID CITY     MOSUNNY   69  59  70 S9        29.90S
GLASGOW        PTSUNNY   67  55  65 SW6       29.86F
SIDNEY         CLOUDY    66  55  68 E7        29.90S
WOLF POINT     CLOUDY    69  55  60 SE3       29.88S
GLENDIVE       PTSUNNY   63  54  72 E9        29.92R
MILES CITY     TSTM      60  56  86 NE5       29.91R
BAKER          PTSUNNY   63  54  72 SE10      29.92F
$$

CITY           SKY/WX    TMP DP  RH WIND       PRES   REMARKS
BILLINGS       PTSUNNY   63  52  67 NE6       29.96R
GREAT FALLS    PTSUNNY   63  48  58 N8        29.96S
REGINA         PTSUNNY   70  48  46 E12       29.93R
ESTEVAN        LGT RAIN  61  55  82 NW6       29.92F
$$



USA.gov is the U.S. government's official web portal to all federal, state and local government web resources and services.